Location: Gwatt
(46.7204°N, 7.6223°E)
Time: 11:54:18
(UTC+00:00)

Transit 2A - Pass Details

Date: 15 May 2021
Orbit: 601 x 958 km, 66.7° (Epoch: 15 June)

Event Time Altitude Azimuth Distance (km) Brightness Sun altitude
Exits shadow 23:59:56 38° 102° (ESE) 944 6.4 -23.7°
Drops below altitude 10° 00:03:35 10° 48° (NE) 1,955 8.8 -23.6°
Sets 00:05:55 0° 40° (NE) 2,858 9.9 -23.6°
